Location: Fairmont
(43.6520°N, 94.4610°W)
Time: 07:04:56
(UTC-05:00)

Cosmos-2242 - Visible Passes

Search period start: 23 August 2017 00:00
Search period end: 02 September 2017 00:00
Orbit: 593 x 617 km, 82.5° (Epoch: 22 August)

Date Brightness Start Highest point End Pass type
(mag) Time Alt. Az. Time Alt. Az. Time Alt. Az.
23 Aug 5.7 01:30:03 15° NE 01:30:03 15° NE 01:31:04 10° NNE visible
23 Aug 5.3 03:06:55 18° NNW 03:06:55 18° NNW 03:08:33 10° NNW visible
24 Aug 5.6 01:43:03 19° NNE 01:43:03 19° NNE 01:44:22 10° NNE visible
24 Aug 5.6 03:19:55 13° NW 03:19:55 13° NW 03:20:51 10° NNW visible
25 Aug 5.5 01:56:02 20° NNE 01:56:02 20° NNE 01:57:28 10° N visible
26 Aug 5.5 02:09:01 19° N 02:09:01 19° N 02:10:23 10° N visible
27 Aug 5.6 02:22:00 17° NNW 02:22:00 17° NNW 02:23:09 10° N visible
28 Aug 6.0 00:58:05 12° NNE 00:58:05 12° NNE 00:58:29 10° NNE visible
28 Aug 5.8 02:34:57 13° NNW 02:34:57 13° NNW 02:35:42 10° NNW visible
29 Aug 5.9 01:11:03 14° NNE 01:11:03 14° NNE 01:11:43 10° NNE visible
30 Aug 5.9 01:24:00 15° N 01:24:00 15° N 01:24:46 10° N visible
31 Aug 6.0 01:36:56 14° N 01:36:56 14° N 01:37:38 10° N visible
01 Sep 6.0 01:49:52 13° NNW 01:49:52 13° NNW 01:50:21 10° N visible
